Home   Weather   Råholt   Past weeks

Flag for Norway Past Weather in Råholt, Norway — Yesterday and Last 2 Weeks

Now
27 °F

Partly sunny.


Feels Like: 27 °F
Forecast: 19 / 27 °F
Wind: 1 mph from North

Location: Oslo Gardermoen Airport

Current Time: Jan 23, 2017 at 11:41:37 am

Latest Report: Jan 23, 2017 at 10:50 am


Visibility: 2 mi

Pressure: 29.98 "Hg

Humidity: 93%

Dew Point: 25 °F

Location of RåholtLocation

Past Weather in Råholt — Graph

°F

Råholt Temperature Yesterday

Maximum temperature yesterday: 32 °F (at 12:50 pm)
Minimum temperature yesterday: 23 °F (at 12:20 am)
Average temperature yesterday: 29 °F

High & Low Weather Summary for the Past Weeks

 TemperatureHumidityPressure
High48 °F (Jan 19, 1:20 pm)100% (Jan 8, 12:20 pm)30.39 "Hg (Jan 8, 12:20 pm)
Low12 °F (Jan 15, 10:50 pm)53% (Jan 19, 6:50 pm)28.50 "Hg (Jan 11, 4:20 pm)
Average28 °F85%29.82 "Hg
* Reported Jan 8 10:20 am — Jan 23 10:20 am, Råholt, Weather by CustomWeather, © 2017

Note: Actual official high and low records may vary slightly from our data, if they occured in-between our weather recording intervals... More about our weather records

Advertising

Råholt Weather History for the Previous 24 Hours

Scroll right to see more
 ConditionsComfort  
Time TempWeatherWind HumidityBarometerVisibility
10:20 am
Mon, Jan 23
25 °FCold.2 mph100%29.98 "Hg2 mi
9:50 am25 °FIce fog.No wind93%29.98 "Hg1 mi
9:20 am25 °FLight freezing rain. Ice fog.No wind93%29.98 "Hg0 mi
8:50 am25 °FIce fog.No wind93%29.98 "Hg1 mi
8:20 am25 °FIce fog.2 mph93%29.98 "Hg1 mi
7:50 am25 °FIce fog.2 mph100%29.98 "Hg1 mi
7:20 am25 °FCold.2 mph93%29.98 "Hg1 mi
6:50 am25 °FIce fog.6 mph93%29.98 "Hg1 mi
6:20 am25 °FCold.3 mph100%29.98 "Hg1 mi
5:50 am25 °FIce fog.3 mph100%29.98 "Hg1 mi
5:20 am25 °FCold.2 mph100%29.98 "Hg1 mi
4:50 am25 °FIce fog.No wind100%29.98 "Hg1 mi
4:20 am27 °FIce fog.2 mph93%30.01 "Hg1 mi
3:50 am27 °FIce fog.No wind93%30.01 "Hg1 mi
3:20 am25 °FSleet. Overcast.No wind93%30.01 "Hg2 mi
2:50 am27 °FIce fog.3 mph93%30.01 "Hg1 mi
2:20 am27 °FIce fog.2 mph93%30.01 "Hg1 mi
1:50 am27 °FSleet. Low clouds.1 mph100%30.04 "Hg4 mi
1:20 am27 °FSleet. Low clouds.No wind100%30.04 "HgN/A
12:50 am28 °FLow clouds.2 mph93%30.04 "HgN/A
12:20 am28 °FLow clouds.1 mph93%30.04 "Hg6 mi
11:50 pm
Sun, Jan 22
28 °FLow clouds.3 mph100%30.04 "HgN/A
11:20 pm30 °FLow clouds.2 mph93%30.04 "HgN/A
10:50 pm30 °FLow clouds.2 mph93%30.04 "HgN/A
10:20 pm30 °FLow clouds.1 mph93%30.07 "HgN/A
9:50 pm30 °FMostly cloudy.No wind93%30.04 "HgN/A
9:20 pm30 °FMostly cloudy.2 mph93%30.07 "HgN/A
8:50 pm30 °FMostly cloudy.2 mph93%30.07 "HgN/A
8:20 pm30 °FMostly cloudy.2 mph100%30.07 "HgN/A
7:50 pm32 °FSnow. Low clouds.2 mph93%30.07 "HgN/A
7:20 pm32 °FMostly cloudy.3 mph93%30.07 "Hg6 mi
6:50 pm32 °FLow clouds.6 mph93%30.09 "Hg4 mi
6:20 pm32 °FMostly cloudy.7 mph93%30.09 "HgN/A
5:50 pm32 °FLow clouds.6 mph93%30.09 "Hg4 mi
5:20 pm32 °FIce fog.6 mph93%30.09 "Hg2 mi
4:50 pm32 °FMostly cloudy.7 mph93%30.09 "Hg5 mi
4:20 pm32 °FMostly cloudy.7 mph93%30.09 "Hg4 mi
3:50 pm32 °FIce fog.7 mph93%30.09 "Hg2 mi
3:20 pm32 °FIce fog.8 mph100%30.12 "Hg2 mi
2:50 pm32 °FChilly.8 mph100%30.12 "Hg3 mi
2:20 pm32 °FIce fog.6 mph93%30.12 "Hg1 mi
1:50 pm32 °FIce fog.7 mph93%30.12 "Hg1 mi
1:20 pm32 °FIce fog.6 mph93%30.15 "Hg1 mi
12:50 pm32 °FIce fog.6 mph93%30.15 "Hg1 mi
12:20 pm30 °FIce fog.3 mph100%30.18 "Hg1 mi
11:50 am30 °FIce fog.1 mph93%30.18 "Hg1 mi
11:20 am30 °FIce fog.2 mph93%30.18 "Hg1 mi
Weather by CustomWeather, © 2017

See weather overviewHow to use our weather pages